Time,TemperatureF,DewpointF,PressureIn,WindDirection,WindDirectionDegrees,WindSpeedMPH,WindSpeedGustMPH,Humidity,HourlyPrecipIn,Conditions,Clouds,dailyrainin,SoftwareType,DateUTC
2013-07-13 00:00:00,74.7,50.7,28.70,SSE,158,9.0,15.7,43,0.00,,,0.00,VWS V14.01,2013-07-13 05:00:00,
2013-07-13 00:05:00,74.7,50.7,28.70,SE,135,10.5,12.8,43,0.00,,,0.00,VWS V14.01,2013-07-13 05:05:00,
2013-07-13 00:10:00,74.7,50.7,28.70,SSE,158,10.7,15.2,43,0.00,,,0.00,VWS V14.01,2013-07-13 05:10:00,
2013-07-13 00:15:00,74.5,51.2,28.67,SSE,158,10.7,12.3,44,0.00,,,0.00,VWS V14.01,2013-07-13 05:15:00,
2013-07-13 00:20:00,74.5,51.2,28.67,ESE,112,10.5,13.2,44,0.00,,,0.00,VWS V14.01,2013-07-13 05:20:00,
2013-07-13 00:25:00,74.5,51.2,28.67,South,180,12.5,14.8,44,0.00,,,0.00,VWS V14.01,2013-07-13 05:25:00,
2013-07-13 00:30:00,74.3,51.0,28.70,SE,135,8.1,12.5,44,0.00,,,0.00,VWS V14.01,2013-07-13 05:30:00,
2013-07-13 00:35:00,74.1,50.8,28.70,ESE,112,5.8,10.7,44,0.00,,,0.00,VWS V14.01,2013-07-13 05:35:00,
2013-07-13 00:40:00,73.9,51.3,28.70,SSE,158,9.8,15.2,45,0.00,,,0.00,VWS V14.01,2013-07-13 05:40:00,
2013-07-13 00:45:00,73.8,51.1,28.70,SE,135,7.8,11.0,45,0.00,,,0.00,VWS V14.01,2013-07-13 05:45:00,
2013-07-13 00:50:00,73.6,51.0,28.70,SSE,158,10.5,13.6,45,0.00,,,0.00,VWS V14.01,2013-07-13 05:50:00,
2013-07-13 00:55:00,73.4,50.8,28.70,SE,135,11.0,16.1,45,0.00,,,0.00,VWS V14.01,2013-07-13 05:55:00,
2013-07-13 01:00:00,73.4,50.8,28.67,SE,135,13.2,13.2,45,0.00,,,0.00,VWS V14.01,2013-07-13 06:00:00,
2013-07-13 01:05:00,73.2,51.2,28.67,SSE,158,10.1,14.8,46,0.00,,,0.00,VWS V14.01,2013-07-13 06:05:00,
2013-07-13 01:10:00,73.2,50.6,28.67,SSE,158,12.8,17.0,45,0.00,,,0.00,VWS V14.01,2013-07-13 06:10:00,
2013-07-13 01:15:00,73.0,50.5,28.67,SE,135,12.5,18.1,45,0.00,,,0.00,VWS V14.01,2013-07-13 06:15:00,
2013-07-13 01:20:00,73.0,50.5,28.67,SSE,158,17.9,17.9,45,0.00,,,0.00,VWS V14.01,2013-07-13 06:20:00,
2013-07-13 01:25:00,73.0,50.5,28.67,SSE,158,12.8,17.9,45,0.00,,,0.00,VWS V14.01,2013-07-13 06:25:00,
2013-07-13 01:30:00,72.9,50.3,28.67,SSE,158,8.5,17.0,45,0.00,,,0.00,VWS V14.01,2013-07-13 06:30:00,
2013-07-13 01:35:00,72.9,50.3,28.67,SSE,158,8.1,15.2,45,0.00,,,0.00,VWS V14.01,2013-07-13 06:35:00,
2013-07-13 01:40:00,72.7,50.1,28.67,SE,135,10.1,14.8,45,0.00,,,0.00,VWS V14.01,2013-07-13 06:40:00,
2013-07-13 01:45:00,72.5,50.0,28.67,SSE,158,10.7,13.0,45,0.00,,,0.00,VWS V14.01,2013-07-13 06:45:00,
2013-07-13 01:50:00,72.5,50.0,28.67,SSE,158,16.8,17.2,45,0.00,,,0.00,VWS V14.01,2013-07-13 06:50:00,
2013-07-13 01:55:00,72.7,50.1,28.67,SSE,158,12.8,16.8,45,0.00,,,0.00,VWS V14.01,2013-07-13 06:55:00,
2013-07-13 02:00:00,72.5,50.0,28.67,SSE,158,15.2,17.0,45,0.00,,,0.00,VWS V14.01,2013-07-13 07:00:00,
2013-07-13 02:05:00,72.5,50.0,28.67,SSE,158,8.5,18.8,45,0.00,,,0.00,VWS V14.01,2013-07-13 07:05:00,
2013-07-13 02:10:00,72.3,49.8,28.67,SSE,158,9.8,13.0,45,0.00,,,0.00,VWS V14.01,2013-07-13 07:10:00,
2013-07-13 02:15:00,72.1,49.7,28.67,SSE,158,7.6,13.4,45,0.00,,,0.00,VWS V14.01,2013-07-13 07:15:00,
2013-07-13 02:20:00,72.0,50.1,28.67,SSE,158,10.7,15.4,46,0.00,,,0.00,VWS V14.01,2013-07-13 07:20:00,
2013-07-13 02:25:00,71.8,49.9,28.67,South,180,7.8,15.2,46,0.00,,,0.00,VWS V14.01,2013-07-13 07:25:00,
2013-07-13 02:30:00,71.6,49.8,28.67,SSE,158,10.3,17.7,46,0.00,,,0.00,VWS V14.01,2013-07-13 07:30:00,
2013-07-13 02:35:00,71.4,50.2,28.67,SSE,158,11.4,13.0,47,0.00,,,0.00,VWS V14.01,2013-07-13 07:35:00,
2013-07-13 02:40:00,71.4,49.6,28.67,SSE,158,8.7,15.2,46,0.00,,,0.00,VWS V14.01,2013-07-13 07:40:00,
2013-07-13 02:45:00,71.4,49.6,28.67,SSE,158,11.0,14.1,46,0.00,,,0.00,VWS V14.01,2013-07-13 07:45:00,
2013-07-13 02:50:00,71.4,49.6,28.67,SSE,158,12.1,15.2,46,0.00,,,0.00,VWS V14.01,2013-07-13 07:50:00,
2013-07-13 02:55:00,71.2,49.4,28.67,SSE,158,8.5,13.2,46,0.00,,,0.00,VWS V14.01,2013-07-13 07:55:00,
2013-07-13 03:00:00,71.2,49.4,28.67,SSE,158,7.6,17.2,46,0.00,,,0.00,VWS V14.01,2013-07-13 08:00:00,
2013-07-13 03:05:00,71.2,49.4,28.67,SSE,158,10.3,15.4,46,0.00,,,0.00,VWS V14.01,2013-07-13 08:05:00,
2013-07-13 03:10:00,71.1,49.3,28.67,SSE,158,12.5,13.2,46,0.00,,,0.00,VWS V14.01,2013-07-13 08:10:00,
2013-07-13 03:15:00,71.1,49.3,28.67,SSE,158,10.3,15.2,46,0.00,,,0.00,VWS V14.01,2013-07-13 08:15:00,
2013-07-13 03:20:00,71.1,49.3,28.67,SSE,158,10.1,14.5,46,0.00,,,0.00,VWS V14.01,2013-07-13 08:20:00,
2013-07-13 03:25:00,70.9,49.1,28.67,SSE,158,9.2,14.1,46,0.00,,,0.00,VWS V14.01,2013-07-13 08:25:00,
2013-07-13 03:30:00,70.9,49.1,28.67,SSE,158,10.5,14.3,46,0.00,,,0.00,VWS V14.01,2013-07-13 08:30:00,
2013-07-13 03:35:00,70.7,48.9,28.67,SSE,158,9.4,14.3,46,0.00,,,0.00,VWS V14.01,2013-07-13 08:35:00,
2013-07-13 03:40:00,70.7,49.5,28.67,SSE,158,10.5,10.7,47,0.00,,,0.00,VWS V14.01,2013-07-13 08:40:00,
2013-07-13 03:45:00,70.5,49.3,28.67,SSE,158,8.1,12.3,47,0.00,,,0.00,VWS V14.01,2013-07-13 08:45:00,
2013-07-13 03:50:00,70.3,49.2,28.67,SSE,158,9.8,10.7,47,0.00,,,0.00,VWS V14.01,2013-07-13 08:50:00,
2013-07-13 03:55:00,70.3,49.2,28.67,SSE,158,9.6,12.1,47,0.00,,,0.00,VWS V14.01,2013-07-13 08:55:00,
2013-07-13 04:00:00,70.2,49.0,28.67,SSE,158,12.1,12.5,47,0.00,,,0.00,VWS V14.01,2013-07-13 09:00:00,
2013-07-13 04:05:00,70.2,49.0,28.67,SSE,158,10.1,12.3,47,0.00,,,0.00,VWS V14.01,2013-07-13 09:05:00,
2013-07-13 04:10:00,70.0,49.4,28.67,SSE,158,7.4,13.0,48,0.00,,,0.00,VWS V14.01,2013-07-13 09:10:00,
2013-07-13 04:15:00,70.0,49.4,28.67,SSE,158,8.1,12.1,48,0.00,,,0.00,VWS V14.01,2013-07-13 09:15:00,
2013-07-13 04:20:00,69.8,49.2,28.67,SSE,158,11.0,12.8,48,0.00,,,0.00,VWS V14.01,2013-07-13 09:20:00,
2013-07-13 04:25:00,69.8,49.2,28.67,SSE,158,11.9,13.9,48,0.00,,,0.00,VWS V14.01,2013-07-13 09:25:00,
2013-07-13 04:30:00,69.8,49.2,28.67,SSE,158,10.3,13.0,48,0.00,,,0.00,VWS V14.01,2013-07-13 09:30:00,
2013-07-13 04:35:00,69.8,49.2,28.67,SSE,158,10.1,13.2,48,0.00,,,0.00,VWS V14.01,2013-07-13 09:35:00,
2013-07-13 04:40:00,69.6,49.1,28.67,SSE,158,11.9,12.3,48,0.00,,,0.00,VWS V14.01,2013-07-13 09:40:00,
2013-07-13 04:45:00,69.6,49.1,28.67,SSE,158,11.0,14.5,48,0.00,,,0.00,VWS V14.01,2013-07-13 09:45:00,
2013-07-13 04:50:00,69.4,49.5,28.67,SSE,158,7.4,13.4,49,0.00,,,0.00,VWS V14.01,2013-07-13 09:50:00,
2013-07-13 04:55:00,69.4,49.5,28.67,South,180,7.6,12.8,49,0.00,,,0.00,VWS V14.01,2013-07-13 09:55:00,
2013-07-13 05:00:00,69.4,48.9,28.67,SSE,158,11.0,13.4,48,0.00,,,0.00,VWS V14.01,2013-07-13 10:00:00,
2013-07-13 05:05:00,69.4,48.9,28.67,SSE,158,8.1,12.3,48,0.00,,,0.00,VWS V14.01,2013-07-13 10:05:00,
2013-07-13 05:10:00,69.4,48.9,28.67,SE,135,10.3,15.4,48,0.00,,,0.00,VWS V14.01,2013-07-13 10:10:00,
2013-07-13 05:15:00,69.4,48.9,28.67,SSE,158,10.3,12.8,48,0.00,,,0.00,VWS V14.01,2013-07-13 10:15:00,
2013-07-13 05:20:00,69.6,49.1,28.67,SSE,158,7.4,13.2,48,0.00,,,0.00,VWS V14.01,2013-07-13 10:20:00,
2013-07-13 05:25:00,69.6,49.1,28.67,SSE,158,8.1,15.2,48,0.00,,,0.00,VWS V14.01,2013-07-13 10:25:00,
2013-07-13 05:30:00,69.6,49.1,28.67,SSE,158,7.6,12.1,48,0.00,,,0.00,VWS V14.01,2013-07-13 10:30:00,
2013-07-13 05:35:00,69.6,49.1,28.67,SSE,158,12.3,14.1,48,0.00,,,0.00,VWS V14.01,2013-07-13 10:35:00,
2013-07-13 05:40:00,69.8,48.7,28.67,SSE,158,7.8,16.3,47,0.00,,,0.00,VWS V14.01,2013-07-13 10:40:00,
2013-07-13 05:45:00,69.8,48.7,28.67,SSE,158,10.5,13.2,47,0.00,,,0.00,VWS V14.01,2013-07-13 10:45:00,
2013-07-13 05:50:00,69.8,48.1,28.67,SSE,158,14.3,14.3,46,0.00,,,0.00,VWS V14.01,2013-07-13 10:50:00,
2013-07-13 05:55:00,69.8,48.7,28.67,SSE,158,8.5,14.3,47,0.00,,,0.00,VWS V14.01,2013-07-13 10:55:00,
2013-07-13 06:00:00,69.6,48.5,28.67,SSE,158,7.6,12.5,47,0.00,,,0.00,VWS V14.01,2013-07-13 11:00:00,
2013-07-13 06:05:00,69.6,48.5,28.67,SSE,158,13.0,13.0,47,0.00,,,0.00,VWS V14.01,2013-07-13 11:05:00,
2013-07-13 06:10:00,69.8,48.1,28.67,SSE,158,8.1,13.9,46,0.00,,,0.00,VWS V14.01,2013-07-13 11:10:00,
2013-07-13 06:15:00,69.8,48.1,28.67,SE,135,9.8,14.5,46,0.00,,,0.00,VWS V14.01,2013-07-13 11:15:00,
2013-07-13 06:20:00,69.8,48.1,28.67,SSE,158,13.0,13.0,46,0.00,,,0.00,VWS V14.01,2013-07-13 11:20:00,
2013-07-13 06:25:00,69.8,48.1,28.67,SSE,158,10.5,13.0,46,0.00,,,0.00,VWS V14.01,2013-07-13 11:25:00,
2013-07-13 06:30:00,69.8,48.7,28.67,SSE,158,7.8,11.0,47,0.00,,,0.00,VWS V14.01,2013-07-13 11:30:00,
2013-07-13 06:35:00,69.6,48.5,28.67,SSE,158,12.3,12.3,47,0.00,,,0.00,VWS V14.01,2013-07-13 11:35:00,
2013-07-13 06:40:00,69.6,48.5,28.67,SSE,158,6.0,13.2,47,0.00,,,0.00,VWS V14.01,2013-07-13 11:40:00,
2013-07-13 06:45:00,69.6,48.5,28.67,South,180,11.2,11.9,47,0.00,,,0.00,VWS V14.01,2013-07-13 11:45:00,
2013-07-13 06:50:00,69.8,48.7,28.67,SSE,158,7.6,13.0,47,0.00,,,0.00,VWS V14.01,2013-07-13 11:50:00,
2013-07-13 06:55:00,69.8,48.1,28.67,SSE,158,10.3,15.2,46,0.00,,,0.00,VWS V14.01,2013-07-13 11:55:00,
2013-07-13 07:00:00,70.0,48.3,28.67,SSE,158,10.3,11.4,46,0.00,,,0.00,VWS V14.01,2013-07-13 12:00:00,
2013-07-13 07:05:00,70.2,48.4,28.67,South,180,8.5,12.1,46,0.00,,,0.00,VWS V14.01,2013-07-13 12:05:00,
2013-07-13 07:10:00,70.2,48.4,28.67,SSW,202,5.4,11.0,46,0.00,,,0.00,VWS V14.01,2013-07-13 12:10:00,
2013-07-13 07:15:00,70.3,48.6,28.70,South,180,6.5,10.3,46,0.00,,,0.00,VWS V14.01,2013-07-13 12:15:00,
2013-07-13 07:20:00,70.5,48.8,28.70,SSE,158,7.6,10.3,46,0.00,,,0.00,VWS V14.01,2013-07-13 12:20:00,
2013-07-13 07:25:00,70.7,48.9,28.70,SSE,158,9.2,11.2,46,0.00,,,0.00,VWS V14.01,2013-07-13 12:25:00,
2013-07-13 07:30:00,70.7,48.3,28.67,SSE,158,8.7,13.2,45,0.00,,,0.00,VWS V14.01,2013-07-13 12:30:00,
2013-07-13 07:35:00,70.9,48.5,28.67,SSE,158,5.8,10.3,45,0.00,,,0.00,VWS V14.01,2013-07-13 12:35:00,
2013-07-13 07:40:00,71.1,48.7,28.67,SSE,158,10.5,12.5,45,0.00,,,0.00,VWS V14.01,2013-07-13 12:40:00,
2013-07-13 07:45:00,71.1,48.7,28.70,SSE,158,7.6,12.5,45,0.00,,,0.00,VWS V14.01,2013-07-13 12:45:00,
2013-07-13 07:50:00,71.2,48.8,28.70,SSE,158,7.8,12.8,45,0.00,,,0.00,VWS V14.01,2013-07-13 12:50:00,
2013-07-13 07:55:00,71.4,49.0,28.70,SSE,158,7.6,11.9,45,0.00,,,0.00,VWS V14.01,2013-07-13 12:55:00,
2013-07-13 08:00:00,71.4,49.0,28.70,SSE,158,7.4,10.7,45,0.00,,,0.00,VWS V14.01,2013-07-13 13:00:00,
2013-07-13 08:05:00,71.6,49.2,28.70,SSE,158,10.5,11.0,45,0.00,,,0.00,VWS V14.01,2013-07-13 13:05:00,
2013-07-13 08:10:00,71.8,49.3,28.70,SSE,158,12.5,12.5,45,0.00,,,0.00,VWS V14.01,2013-07-13 13:10:00,
2013-07-13 08:15:00,71.8,49.3,28.70,SSE,158,8.7,12.8,45,0.00,,,0.00,VWS V14.01,2013-07-13 13:15:00,
2013-07-13 08:20:00,72.0,48.9,28.70,SSE,158,11.9,13.6,44,0.00,,,0.00,VWS V14.01,2013-07-13 13:20:00,
2013-07-13 08:25:00,72.3,49.2,28.70,SSE,158,15.4,15.4,44,0.00,,,0.00,VWS V14.01,2013-07-13 13:25:00,
2013-07-13 08:30:00,72.3,49.2,28.67,SSE,158,10.5,17.2,44,0.00,,,0.00,VWS V14.01,2013-07-13 13:30:00,
2013-07-13 08:35:00,72.1,49.0,28.67,South,180,13.6,17.7,44,0.00,,,0.00,VWS V14.01,2013-07-13 13:35:00,
2013-07-13 08:40:00,71.8,49.3,28.67,SSE,158,12.3,15.4,45,0.00,,,0.00,VWS V14.01,2013-07-13 13:40:00,
2013-07-13 08:45:00,70.9,52.4,28.70,South,180,7.6,14.5,52,0.00,,,0.00,VWS V14.01,2013-07-13 13:45:00,
2013-07-13 08:50:00,70.0,54.1,28.70,South,180,12.8,12.8,57,0.00,,,0.00,VWS V14.01,2013-07-13 13:50:00,
2013-07-13 08:55:00,68.9,53.5,28.70,South,180,10.5,12.8,58,0.09,,,0.09,VWS V14.01,2013-07-13 13:55:00,
2013-07-13 09:00:00,68.5,54.6,28.70,SSE,158,8.5,12.1,61,0.17,,,0.17,VWS V14.01,2013-07-13 14:00:00,
2013-07-13 09:05:00,68.5,55.0,28.70,SSE,158,5.8,8.7,62,0.17,,,0.17,VWS V14.01,2013-07-13 14:05:00,
2013-07-13 09:10:00,68.7,56.1,28.70,SE,135,4.9,9.0,64,0.17,,,0.17,VWS V14.01,2013-07-13 14:10:00,
2013-07-13 09:15:00,68.9,56.2,28.70,SE,135,6.0,8.7,64,0.17,,,0.17,VWS V14.01,2013-07-13 14:15:00,
2013-07-13 09:20:00,68.9,57.1,28.70,SSE,158,9.0,9.0,66,0.17,,,0.17,VWS V14.01,2013-07-13 14:20:00,
2013-07-13 09:25:00,69.3,56.6,28.70,ESE,112,10.1,10.1,64,0.17,,,0.17,VWS V14.01,2013-07-13 14:25:00,
2013-07-13 09:30:00,69.4,56.3,28.70,SSE,158,7.8,10.7,63,0.17,,,0.17,VWS V14.01,2013-07-13 14:30:00,
2013-07-13 09:35:00,69.8,55.3,28.70,SE,135,12.5,12.5,60,0.17,,,0.17,VWS V14.01,2013-07-13 14:35:00,
2013-07-13 09:40:00,70.0,54.5,28.70,SSE,158,12.3,14.3,58,0.17,,,0.17,VWS V14.01,2013-07-13 14:40:00,
2013-07-13 09:45:00,70.5,55.0,28.67,SSE,158,10.1,13.0,58,0.17,,,0.17,VWS V14.01,2013-07-13 14:45:00,
2013-07-13 09:50:00,71.1,54.1,28.67,SE,135,9.8,14.8,55,0.17,,,0.17,VWS V14.01,2013-07-13 14:50:00,
2013-07-13 09:55:00,72.0,54.9,28.67,South,180,13.9,13.9,55,0.17,,,0.17,VWS V14.01,2013-07-13 14:55:00,
2013-07-13 10:00:00,72.7,54.1,28.67,SSE,158,13.2,14.8,52,0.08,,,0.17,VWS V14.01,2013-07-13 15:00:00,
2013-07-13 10:05:00,73.4,54.2,28.67,SSE,158,10.1,14.8,51,0.00,,,0.17,VWS V14.01,2013-07-13 15:05:00,
2013-07-13 10:10:00,68.7,56.1,28.70,SE,135,4.9,9.0,64,0.17,,,0.17,VWS V14.01,2013-07-13 15:10:00,
2013-07-13 10:15:00,68.9,56.2,28.70,SE,135,6.0,8.7,64,0.17,,,0.17,VWS V14.01,2013-07-13 15:15:00,
2013-07-13 10:20:00,68.9,57.1,28.70,SSE,158,9.0,9.0,66,0.17,,,0.17,VWS V14.01,2013-07-13 15:20:00,
2013-07-13 10:25:00,69.3,56.6,28.70,ESE,112,10.1,10.1,64,0.17,,,0.17,VWS V14.01,2013-07-13 15:25:00,
2013-07-13 10:30:00,75.0,53.4,28.70,SSE,158,9.8,16.6,47,0.00,,,0.17,VWS V14.01,2013-07-13 15:30:00,
2013-07-13 10:35:00,75.2,54.2,28.70,SE,135,8.1,15.7,48,0.00,,,0.17,VWS V14.01,2013-07-13 15:35:00,
2013-07-13 10:40:00,75.7,53.5,28.70,SSE,158,10.3,13.4,46,0.00,,,0.17,VWS V14.01,2013-07-13 15:40:00,
2013-07-13 10:45:00,75.9,53.7,28.70,SE,135,8.5,14.8,46,0.00,,,0.17,VWS V14.01,2013-07-13 15:45:00,
2013-07-13 10:50:00,75.9,54.3,28.70,SE,135,8.1,15.2,47,0.00,,,0.17,VWS V14.01,2013-07-13 15:50:00,
2013-07-13 10:55:00,75.9,52.5,28.70,SSE,158,10.1,17.7,44,0.00,,,0.17,VWS V14.01,2013-07-13 15:55:00,
2013-07-13 11:00:00,76.8,53.9,28.70,SSE,158,12.5,13.0,45,0.00,,,0.17,VWS V14.01,2013-07-13 16:00:00,
2013-07-13 11:05:00,76.8,53.3,28.70,SSE,158,14.8,17.2,44,0.00,,,0.17,VWS V14.01,2013-07-13 16:05:00,
2013-07-13 11:10:00,76.6,53.1,28.70,SSE,158,8.5,17.2,44,0.00,,,0.17,VWS V14.01,2013-07-13 16:10:00,
2013-07-13 11:15:00,77.2,53.0,28.70,SSE,158,9.8,17.7,43,0.00,,,0.17,VWS V14.01,2013-07-13 16:15:00,
2013-07-13 11:20:00,77.7,54.1,28.70,SE,135,13.0,17.7,44,0.00,,,0.17,VWS V14.01,2013-07-13 16:20:00,
2013-07-13 11:25:00,78.1,54.4,28.70,SSE,158,16.8,16.8,44,0.00,,,0.17,VWS V14.01,2013-07-13 16:25:00,
2013-07-13 11:30:00,78.6,54.3,28.70,SE,135,16.6,17.5,43,0.00,,,0.17,VWS V14.01,2013-07-13 16:30:00,
2013-07-13 11:35:00,79.0,54.6,28.70,SE,135,12.3,17.2,43,0.00,,,0.17,VWS V14.01,2013-07-13 16:35:00,
2013-07-13 11:40:00,79.3,53.6,28.70,SE,135,12.5,15.9,41,0.00,,,0.17,VWS V14.01,2013-07-13 16:40:00,
2013-07-13 11:45:00,79.3,53.0,28.70,SE,135,15.2,15.2,40,0.00,,,0.17,VWS V14.01,2013-07-13 16:45:00,
2013-07-13 11:50:00,80.1,54.9,28.70,ESE,112,7.8,17.5,42,0.00,,,0.17,VWS V14.01,2013-07-13 16:50:00,
2013-07-13 11:55:00,80.2,55.1,28.70,ESE,112,9.8,13.2,42,0.00,,,0.17,VWS V14.01,2013-07-13 16:55:00,
2013-07-13 12:00:00,80.6,54.8,28.70,ESE,112,7.8,12.8,41,0.00,,,0.17,VWS V14.01,2013-07-13 17:00:00,
2013-07-13 12:05:00,80.2,54.4,28.70,ESE,112,8.1,12.5,41,0.00,,,0.17,VWS V14.01,2013-07-13 17:05:00,
2013-07-13 12:10:00,80.2,55.1,28.70,ESE,112,7.6,9.4,42,0.00,,,0.17,VWS V14.01,2013-07-13 17:10:00,
2013-07-13 12:15:00,80.2,55.7,28.70,SE,135,6.9,8.1,43,0.00,,,0.17,VWS V14.01,2013-07-13 17:15:00,
2013-07-13 12:20:00,80.2,55.1,28.70,ESE,112,6.0,8.5,42,0.00,,,0.17,VWS V14.01,2013-07-13 17:20:00,
2013-07-13 12:25:00,81.3,56.7,28.70,ESE,112,5.4,8.5,43,0.00,,,0.17,VWS V14.01,2013-07-13 17:25:00,
2013-07-13 12:30:00,82.2,57.5,28.70,ESE,112,5.8,8.1,43,0.00,,,0.17,VWS V14.01,2013-07-13 17:30:00,
2013-07-13 12:35:00,82.9,56.8,28.70,ESE,112,6.7,8.1,41,0.00,,,0.17,VWS V14.01,2013-07-13 17:35:00,
2013-07-13 12:40:00,82.9,56.2,28.70,ESE,112,12.3,12.3,40,0.00,,,0.17,VWS V14.01,2013-07-13 17:40:00,
2013-07-13 12:45:00,82.0,55.4,28.73,ESE,112,10.1,13.2,40,0.00,,,0.17,VWS V14.01,2013-07-13 17:45:00,
2013-07-13 12:50:00,81.5,54.2,28.73,ESE,112,10.3,15.2,39,0.00,,,0.17,VWS V14.01,2013-07-13 17:50:00,
2013-07-13 12:55:00,81.5,55.5,28.73,East,90,5.8,14.5,41,0.00,,,0.17,VWS V14.01,2013-07-13 17:55:00,
2013-07-13 13:00:00,81.0,54.4,28.73,NE,45,6.5,15.2,40,0.00,,,0.17,VWS V14.01,2013-07-13 18:00:00,
2013-07-13 13:05:00,80.8,54.9,28.73,East,90,7.6,16.8,41,0.00,,,0.17,VWS V14.01,2013-07-13 18:05:00,
2013-07-13 13:10:00,80.2,53.8,28.73,East,90,11.2,17.7,40,0.00,,,0.17,VWS V14.01,2013-07-13 18:10:00,
2013-07-13 13:15:00,80.8,54.2,28.70,ESE,112,15.4,19.7,40,0.00,,,0.17,VWS V14.01,2013-07-13 18:15:00,
2013-07-13 13:20:00,80.4,53.9,28.70,ESE,112,14.5,19.5,40,0.00,,,0.17,VWS V14.01,2013-07-13 18:20:00,
2013-07-13 13:25:00,80.8,53.5,28.70,East,90,17.2,18.8,39,0.00,,,0.17,VWS V14.01,2013-07-13 18:25:00,
2013-07-13 13:30:00,80.6,52.7,28.70,ESE,112,15.2,24.2,38,0.00,,,0.17,VWS V14.01,2013-07-13 18:30:00,
2013-07-13 13:35:00,81.1,53.2,28.70,ESE,112,14.3,19.2,38,0.00,,,0.17,VWS V14.01,2013-07-13 18:35:00,
2013-07-13 13:40:00,82.0,54.0,28.70,SE,135,12.5,19.5,38,0.00,,,0.17,VWS V14.01,2013-07-13 18:40:00,
2013-07-13 13:45:00,82.4,54.3,28.70,ESE,112,16.1,20.8,38,0.00,,,0.17,VWS V14.01,2013-07-13 18:45:00,
2013-07-13 13:50:00,82.2,53.4,28.70,ESE,112,15.4,22.8,37,0.00,,,0.17,VWS V14.01,2013-07-13 18:50:00,
2013-07-13 13:55:00,82.4,52.8,28.70,ESE,112,22.8,24.2,36,0.00,,,0.17,VWS V14.01,2013-07-13 18:55:00,
2013-07-13 14:00:00,82.8,53.1,28.67,SE,135,10.7,22.8,36,0.00,,,0.17,VWS V14.01,2013-07-13 19:00:00,
2013-07-13 14:05:00,82.9,53.3,28.67,ESE,112,19.9,25.3,36,0.00,,,0.17,VWS V14.01,2013-07-13 19:05:00,
2013-07-13 14:10:00,82.6,52.2,28.67,ESE,112,22.2,25.3,35,0.00,,,0.17,VWS V14.01,2013-07-13 19:10:00,
2013-07-13 14:15:00,83.1,53.4,28.67,ESE,112,20.1,23.5,36,0.00,,,0.17,VWS V14.01,2013-07-13 19:15:00,
2013-07-13 14:20:00,82.9,51.7,28.67,SE,135,22.4,27.7,34,0.00,,,0.17,VWS V14.01,2013-07-13 19:20:00,
2013-07-13 14:25:00,82.8,52.3,28.67,ESE,112,16.1,25.7,35,0.00,,,0.17,VWS V14.01,2013-07-13 19:25:00,
2013-07-13 14:30:00,83.1,52.7,28.67,SE,135,12.3,24.4,35,0.00,,,0.17,VWS V14.01,2013-07-13 19:30:00,
2013-07-13 14:35:00,82.9,51.7,28.67,SE,135,19.9,27.5,34,0.00,,,0.17,VWS V14.01,2013-07-13 19:35:00,
2013-07-13 14:40:00,83.3,52.0,28.67,SE,135,16.1,24.4,34,0.00,,,0.17,VWS V14.01,2013-07-13 19:40:00,
2013-07-13 14:45:00,83.1,52.7,28.70,SE,135,17.9,24.6,35,0.00,,,0.17,VWS V14.01,2013-07-13 19:45:00,
2013-07-13 14:50:00,82.9,51.7,28.70,SE,135,15.2,24.2,34,0.00,,,0.17,VWS V14.01,2013-07-13 19:50:00,
2013-07-13 14:55:00,83.1,52.7,28.70,SE,135,15.2,24.2,35,0.00,,,0.17,VWS V14.01,2013-07-13 19:55:00,
2013-07-13 15:00:00,83.5,52.2,28.67,ESE,112,23.0,23.0,34,0.00,,,0.17,VWS V14.01,2013-07-13 20:00:00,
2013-07-13 15:05:00,83.3,52.8,28.67,SSE,158,14.3,25.3,35,0.00,,,0.17,VWS V14.01,2013-07-13 20:05:00,
2013-07-13 15:10:00,83.3,52.0,28.67,SSE,158,17.7,21.9,34,0.00,,,0.17,VWS V14.01,2013-07-13 20:10:00,
2013-07-13 15:15:00,83.5,53.0,28.70,SE,135,10.1,23.3,35,0.00,,,0.17,VWS V14.01,2013-07-13 20:15:00,
2013-07-13 15:20:00,83.5,52.2,28.70,SE,135,15.7,21.9,34,0.00,,,0.17,VWS V14.01,2013-07-13 20:20:00,
2013-07-13 15:25:00,83.5,52.2,28.70,SE,135,18.6,25.1,34,0.00,,,0.17,VWS V14.01,2013-07-13 20:25:00,
2013-07-13 15:30:00,83.8,53.3,28.67,SSE,158,10.5,22.6,35,0.00,,,0.17,VWS V14.01,2013-07-13 20:30:00,
2013-07-13 15:35:00,84.4,53.8,28.67,SE,135,10.3,16.8,35,0.00,,,0.17,VWS V14.01,2013-07-13 20:35:00,
2013-07-13 15:40:00,84.6,53.1,28.67,SSE,158,12.5,19.0,34,0.00,,,0.17,VWS V14.01,2013-07-13 20:40:00,
2013-07-13 15:45:00,85.1,54.4,28.70,SSE,158,15.2,17.0,35,0.00,,,0.17,VWS V14.01,2013-07-13 20:45:00,
2013-07-13 15:50:00,84.7,53.3,28.70,SE,135,16.8,22.2,34,0.00,,,0.17,VWS V14.01,2013-07-13 20:50:00,
2013-07-13 15:55:00,84.7,54.1,28.70,SE,135,17.2,22.6,35,0.00,,,0.17,VWS V14.01,2013-07-13 20:55:00,
2013-07-13 16:00:00,84.4,53.0,28.70,SSE,158,17.2,19.7,34,0.00,,,0.17,VWS V14.01,2013-07-13 21:00:00,
2013-07-13 16:05:00,84.2,52.8,28.70,SSE,158,15.4,19.9,34,0.00,,,0.17,VWS V14.01,2013-07-13 21:05:00,
2013-07-13 16:10:00,84.6,53.9,28.70,SE,135,12.8,20.1,35,0.00,,,0.17,VWS V14.01,2013-07-13 21:10:00,
2013-07-13 16:15:00,84.4,53.0,28.67,SSE,158,19.5,23.0,34,0.00,,,0.17,VWS V14.01,2013-07-13 21:15:00,
2013-07-13 16:20:00,83.8,53.3,28.67,SE,135,14.8,22.6,35,0.00,,,0.17,VWS V14.01,2013-07-13 21:20:00,
2013-07-13 16:25:00,84.0,54.2,28.67,SE,135,12.3,17.5,36,0.00,,,0.17,VWS V14.01,2013-07-13 21:25:00,
2013-07-13 16:30:00,84.2,53.6,28.67,SSE,158,15.2,17.5,35,0.00,,,0.17,VWS V14.01,2013-07-13 21:30:00,
2013-07-13 16:35:00,84.4,54.5,28.67,SE,135,14.3,17.7,36,0.00,,,0.17,VWS V14.01,2013-07-13 21:35:00,
2013-07-13 16:40:00,84.0,54.2,28.67,SSE,158,19.2,20.1,36,0.00,,,0.17,VWS V14.01,2013-07-13 21:40:00,
2013-07-13 16:45:00,84.4,54.5,28.67,SE,135,15.2,22.8,36,0.00,,,0.17,VWS V14.01,2013-07-13 21:45:00,
2013-07-13 16:50:00,84.4,54.5,28.67,SSE,158,7.6,19.5,36,0.00,,,0.17,VWS V14.01,2013-07-13 21:50:00,
2013-07-13 16:55:00,84.0,54.2,28.67,SE,135,14.8,24.2,36,0.00,,,0.17,VWS V14.01,2013-07-13 21:55:00,
2013-07-13 17:00:00,84.2,54.4,28.67,SE,135,10.3,17.5,36,0.00,,,0.17,VWS V14.01,2013-07-13 22:00:00,
2013-07-13 17:05:00,84.7,54.9,28.67,SE,135,15.7,19.5,36,0.00,,,0.17,VWS V14.01,2013-07-13 22:05:00,
2013-07-13 17:10:00,84.4,53.8,28.67,South,180,13.2,19.2,35,0.00,,,0.17,VWS V14.01,2013-07-13 22:10:00,
2013-07-13 17:15:00,84.2,54.4,28.67,SSE,158,10.5,17.5,36,0.00,,,0.17,VWS V14.01,2013-07-13 22:15:00,
2013-07-13 17:20:00,84.2,54.4,28.67,SE,135,15.2,15.2,36,0.00,,,0.17,VWS V14.01,2013-07-13 22:20:00,
2013-07-13 17:25:00,83.7,54.7,28.67,SE,135,13.0,17.7,37,0.00,,,0.17,VWS V14.01,2013-07-13 22:25:00,
2013-07-13 17:30:00,83.3,55.1,28.67,SSE,158,8.5,17.0,38,0.00,,,0.17,VWS V14.01,2013-07-13 22:30:00,
2013-07-13 17:35:00,83.1,54.9,28.67,SSE,158,10.5,15.2,38,0.00,,,0.17,VWS V14.01,2013-07-13 22:35:00,
2013-07-13 17:40:00,82.9,54.8,28.67,SE,135,14.3,15.9,38,0.00,,,0.17,VWS V14.01,2013-07-13 22:40:00,
2013-07-13 17:45:00,82.6,54.4,28.67,SE,135,11.0,18.6,38,0.00,,,0.17,VWS V14.01,2013-07-13 22:45:00,
2013-07-13 17:50:00,82.6,55.1,28.67,SE,135,9.8,17.5,39,0.00,,,0.17,VWS V14.01,2013-07-13 22:50:00,
2013-07-13 17:55:00,82.6,55.1,28.67,SE,135,10.7,15.2,39,0.00,,,0.17,VWS V14.01,2013-07-13 22:55:00,
2013-07-13 18:00:00,82.6,55.8,28.67,ESE,112,8.1,15.7,40,0.00,,,0.17,VWS V14.01,2013-07-13 23:00:00,
2013-07-13 18:05:00,82.2,54.8,28.67,SE,135,13.4,15.4,39,0.00,,,0.17,VWS V14.01,2013-07-13 23:05:00,
2013-07-13 18:10:00,81.9,55.2,28.67,ESE,112,13.0,15.4,40,0.00,,,0.17,VWS V14.01,2013-07-13 23:10:00,
2013-07-13 18:15:00,81.5,54.9,28.70,SE,135,10.5,14.8,40,0.00,,,0.17,VWS V14.01,2013-07-13 23:15:00,
2013-07-13 18:20:00,81.3,54.7,28.70,ESE,112,14.8,15.9,40,0.00,,,0.17,VWS V14.01,2013-07-13 23:20:00,
2013-07-13 18:25:00,81.0,54.4,28.70,ESE,112,12.8,16.3,40,0.00,,,0.17,VWS V14.01,2013-07-13 23:25:00,
2013-07-13 18:30:00,80.4,55.2,28.67,ESE,112,16.8,17.2,42,0.00,,,0.17,VWS V14.01,2013-07-13 23:30:00,
2013-07-13 18:35:00,80.4,55.2,28.67,SE,135,11.0,16.8,42,0.00,,,0.17,VWS V14.01,2013-07-13 23:35:00,
2013-07-13 18:40:00,80.4,55.2,28.67,SE,135,10.7,17.2,42,0.00,,,0.17,VWS V14.01,2013-07-13 23:40:00,
2013-07-13 18:45:00,81.0,55.7,28.67,SE,135,14.5,14.5,42,0.00,,,0.17,VWS V14.01,2013-07-13 23:45:00,
2013-07-13 18:50:00,80.4,55.2,28.67,ESE,112,10.3,17.5,42,0.00,,,0.17,VWS V14.01,2013-07-13 23:50:00,
2013-07-13 18:55:00,80.6,55.4,28.67,SE,135,14.3,17.2,42,0.00,,,0.17,VWS V14.01,2013-07-13 23:55:00,
2013-07-13 19:00:00,80.6,54.8,28.67,SE,135,15.2,17.9,41,0.00,,,0.17,VWS V14.01,2013-07-14 00:00:00,
2013-07-13 19:05:00,81.0,55.7,28.67,SE,135,7.4,15.9,42,0.00,,,0.17,VWS V14.01,2013-07-14 00:05:00,
2013-07-13 19:10:00,80.8,54.9,28.67,SE,135,15.7,15.7,41,0.00,,,0.17,VWS V14.01,2013-07-14 00:10:00,
2013-07-13 19:15:00,80.2,55.7,28.67,ESE,112,14.5,15.7,43,0.00,,,0.17,VWS V14.01,2013-07-14 00:15:00,
2013-07-13 19:20:00,80.1,55.6,28.67,ESE,112,10.5,15.4,43,0.00,,,0.17,VWS V14.01,2013-07-14 00:20:00,
2013-07-13 19:25:00,79.5,54.4,28.67,SE,135,14.5,18.6,42,0.00,,,0.17,VWS V14.01,2013-07-14 00:25:00,
2013-07-13 19:30:00,79.5,54.4,28.67,ESE,112,12.5,18.1,42,0.00,,,0.17,VWS V14.01,2013-07-14 00:30:00,
2013-07-13 19:35:00,79.2,54.1,28.67,ESE,112,13.2,19.2,42,0.00,,,0.17,VWS V14.01,2013-07-14 00:35:00,
2013-07-13 19:40:00,78.8,54.4,28.67,SE,135,12.5,17.7,43,0.00,,,0.17,VWS V14.01,2013-07-14 00:40:00,
2013-07-13 19:45:00,78.4,54.1,28.67,SE,135,11.9,17.7,43,0.00,,,0.17,VWS V14.01,2013-07-14 00:45:00,
2013-07-13 19:50:00,78.1,53.8,28.67,SE,135,17.7,17.7,43,0.00,,,0.17,VWS V14.01,2013-07-14 00:50:00,
2013-07-13 19:55:00,78.1,53.8,28.67,SSE,158,21.9,21.9,43,0.00,,,0.17,VWS V14.01,2013-07-14 00:55:00,
2013-07-13 20:00:00,77.9,54.3,28.70,SE,135,13.2,21.9,44,0.00,,,0.17,VWS V14.01,2013-07-14 01:00:00,
2013-07-13 20:05:00,77.5,54.5,28.70,SE,135,13.9,13.9,45,0.00,,,0.17,VWS V14.01,2013-07-14 01:05:00,
2013-07-13 20:10:00,77.4,54.4,28.70,SE,135,9.6,18.8,45,0.00,,,0.17,VWS V14.01,2013-07-14 01:10:00,
2013-07-13 20:15:00,77.2,54.2,28.70,SE,135,13.0,14.8,45,0.00,,,0.17,VWS V14.01,2013-07-14 01:15:00,
2013-07-13 20:20:00,77.0,54.1,28.70,SSE,158,16.1,16.1,45,0.00,,,0.17,VWS V14.01,2013-07-14 01:20:00,
2013-07-13 20:25:00,76.8,53.9,28.70,SE,135,11.2,20.1,45,0.00,,,0.17,VWS V14.01,2013-07-14 01:25:00,
2013-07-13 20:30:00,76.6,54.3,28.67,SE,135,10.1,14.8,46,0.00,,,0.17,VWS V14.01,2013-07-14 01:30:00,
2013-07-13 20:35:00,76.3,54.0,28.67,ESE,112,10.5,15.4,46,0.00,,,0.17,VWS V14.01,2013-07-14 01:35:00,
2013-07-13 20:40:00,75.9,53.7,28.67,SE,135,13.4,15.4,46,0.00,,,0.17,VWS V14.01,2013-07-14 01:40:00,
2013-07-13 20:45:00,75.7,53.5,28.70,SSE,158,16.3,17.7,46,0.00,,,0.17,VWS V14.01,2013-07-14 01:45:00,
2013-07-13 20:50:00,75.6,53.3,28.70,SE,135,12.5,17.2,46,0.00,,,0.17,VWS V14.01,2013-07-14 01:50:00,
2013-07-13 20:55:00,75.4,53.2,28.70,SE,135,10.5,19.5,46,0.00,,,0.17,VWS V14.01,2013-07-14 01:55:00,
2013-07-13 21:00:00,75.2,53.0,28.70,ESE,112,13.2,14.5,46,0.00,,,0.17,VWS V14.01,2013-07-14 02:00:00,
2013-07-13 21:05:00,75.0,53.4,28.70,ESE,112,14.8,15.7,47,0.00,,,0.17,VWS V14.01,2013-07-14 02:05:00,
2013-07-13 21:10:00,74.8,53.8,28.70,SE,135,7.8,14.8,48,0.00,,,0.17,VWS V14.01,2013-07-14 02:10:00,
2013-07-13 21:15:00,74.5,54.1,28.70,SSE,158,13.2,17.2,49,0.00,,,0.17,VWS V14.01,2013-07-14 02:15:00,
2013-07-13 21:20:00,74.3,53.9,28.70,SE,135,13.0,17.2,49,0.00,,,0.17,VWS V14.01,2013-07-14 02:20:00,
2013-07-13 21:25:00,74.1,54.3,28.70,SE,135,8.7,13.0,50,0.00,,,0.17,VWS V14.01,2013-07-14 02:25:00,
2013-07-13 21:30:00,73.9,54.7,28.70,SE,135,10.5,17.0,51,0.00,,,0.17,VWS V14.01,2013-07-14 02:30:00,
2013-07-13 21:35:00,73.6,54.9,28.70,SE,135,12.5,14.8,52,0.00,,,0.17,VWS V14.01,2013-07-14 02:35:00,
2013-07-13 21:40:00,73.6,55.4,28.70,SE,135,9.8,17.5,53,0.00,,,0.17,VWS V14.01,2013-07-14 02:40:00,
2013-07-13 21:45:00,73.4,55.2,28.70,ESE,112,17.5,19.5,53,0.00,,,0.17,VWS V14.01,2013-07-14 02:45:00,
2013-07-13 21:50:00,73.2,55.6,28.70,SE,135,8.7,19.2,54,0.00,,,0.17,VWS V14.01,2013-07-14 02:50:00,
2013-07-13 21:55:00,73.0,55.9,28.70,ESE,112,13.2,15.2,55,0.00,,,0.17,VWS V14.01,2013-07-14 02:55:00,
2013-07-13 22:00:00,72.9,55.8,28.70,ESE,112,17.0,17.0,55,0.00,,,0.17,VWS V14.01,2013-07-14 03:00:00,
2013-07-13 22:05:00,72.7,55.6,28.70,SE,135,10.3,19.5,55,0.00,,,0.17,VWS V14.01,2013-07-14 03:05:00,
2013-07-13 22:10:00,72.7,55.6,28.70,SE,135,12.3,17.5,55,0.00,,,0.17,VWS V14.01,2013-07-14 03:10:00,
2013-07-13 22:15:00,72.3,56.2,28.70,SE,135,9.0,13.6,57,0.00,,,0.17,VWS V14.01,2013-07-14 03:15:00,
2013-07-13 22:20:00,72.3,56.2,28.70,SE,135,8.1,13.6,57,0.00,,,0.17,VWS V14.01,2013-07-14 03:20:00,
2013-07-13 22:25:00,72.1,56.1,28.70,SSE,158,7.6,14.1,57,0.00,,,0.17,VWS V14.01,2013-07-14 03:25:00,
2013-07-13 22:30:00,72.0,55.9,28.70,ESE,112,11.4,14.5,57,0.00,,,0.17,VWS V14.01,2013-07-14 03:30:00,
2013-07-13 22:35:00,71.8,55.8,28.70,SE,135,15.4,17.7,57,0.00,,,0.17,VWS V14.01,2013-07-14 03:35:00,
2013-07-13 22:40:00,71.6,55.6,28.70,SE,135,8.1,15.4,57,0.00,,,0.17,VWS V14.01,2013-07-14 03:40:00,
2013-07-13 22:45:00,71.6,55.6,28.73,SSE,158,17.2,17.2,57,0.00,,,0.17,VWS V14.01,2013-07-14 03:45:00,
2013-07-13 22:50:00,71.6,55.6,28.73,SE,135,17.5,17.7,57,0.00,,,0.17,VWS V14.01,2013-07-14 03:50:00,
2013-07-13 22:55:00,71.4,55.4,28.73,SSE,158,12.8,17.7,57,0.00,,,0.17,VWS V14.01,2013-07-14 03:55:00,
2013-07-13 23:00:00,71.4,55.4,28.73,SE,135,13.4,16.8,57,0.00,,,0.17,VWS V14.01,2013-07-14 04:00:00,
2013-07-13 23:05:00,71.2,55.2,28.73,SE,135,14.5,19.0,57,0.00,,,0.17,VWS V14.01,2013-07-14 04:05:00,
2013-07-13 23:10:00,71.2,55.2,28.73,SE,135,10.7,19.9,57,0.00,,,0.17,VWS V14.01,2013-07-14 04:10:00,
2013-07-13 23:15:00,71.2,55.2,28.73,SE,135,12.8,17.2,57,0.00,,,0.17,VWS V14.01,2013-07-14 04:15:00,
2013-07-13 23:20:00,71.2,55.2,28.73,SE,135,12.5,15.4,57,0.00,,,0.17,VWS V14.01,2013-07-14 04:20:00,
2013-07-13 23:25:00,71.1,55.1,28.73,SE,135,12.8,14.8,57,0.00,,,0.17,VWS V14.01,2013-07-14 04:25:00,
2013-07-13 23:30:00,71.1,55.1,28.73,SSE,158,14.8,15.2,57,0.00,,,0.17,VWS V14.01,2013-07-14 04:30:00,
2013-07-13 23:35:00,70.9,54.9,28.73,SE,135,13.0,16.1,57,0.00,,,0.17,VWS V14.01,2013-07-14 04:35:00,
2013-07-13 23:40:00,70.9,54.4,28.73,SE,135,13.0,17.2,56,0.00,,,0.17,VWS V14.01,2013-07-14 04:40:00,
2013-07-13 23:45:00,70.9,53.9,28.73,SE,135,8.5,14.8,55,0.00,,,0.17,VWS V14.01,2013-07-14 04:45:00,
2013-07-13 23:50:00,70.9,53.9,28.73,SSE,158,12.3,14.3,55,0.00,,,0.17,VWS V14.01,2013-07-14 04:50:00,
2013-07-13 23:55:00,70.7,53.3,28.73,SE,135,10.7,13.6,54,0.00,,,0.17,VWS V14.01,2013-07-14 04:55:00,